Weather History for Mont-De-Marsan, France

Change the Weather History Date:

Friday, March 1, 2013

  Actual Average Record
Temperature  
Mean Temperature 45 °F -  
Max Temperature 60 °F 59 °F 68 °F (2012)
Min Temperature 30 °F 38 °F 28 °F (1999)
Degree Days  
Heating Degree Days 20    
Moisture  
Dew Point 28 °F    
Average Humidity 59    
Maximum Humidity 93    
Minimum Humidity 23    
Precipitation  
Precipitation 0.00 in - - ()
Sea Level Pressure  
Sea Level Pressure 30.07 in    
Wind  
Wind Speed 4 mph ()    
Max Wind Speed 10 mph    
Max Gust Speed -    
Visibility 6.3 miles    
Events      
Averages and records for this station are not official NWS values.
T = Trace of Precipitation, MM = Missing Value Source: Averaged Metar Reports

Daily Weather History Graph

Daily Weather History Graph

Search for Another Location

Airport:

Trip Planner

Search our weather history database for the weather conditions in past years. The results will help you decide how hot, cold, wet, or windy it might be!

Date:

Astronomy

Mar. 01, 2013 Rise Set
Actual Time 7:38 AM CET 6:50 PM CET
Civil Twilight 7:09 AM CET 7:19 PM CET
Nautical Twilight 6:36 AM CET 7:52 PM CET
Astronomical Twilight 6:03 AM CET 8:26 PM CET
Moon 11:18 PM CET (3/1) 9:06 AM CET (3/1)
Length of Visible Light 12h 09m
Length of Day
11h 11m
Waning Gibbous, 85% of the Moon is Illuminated
Mar 1
Waning Gibbous
Mar 4
Last Quarter
Mar 11
New
Mar 19
First Quarter
Mar 27
Full

Hourly Weather History & Observations

Time (CET) Temp. Windchill Dew Point Humidity Pressure Visibility Wind Dir Wind Speed Gust Speed Precip Events Conditions
12:00 AM 39.2 °F 35.9 °F 30.2 °F 70% 30.06 in 6.2 mi NNE 4.6 mph - N/A   Unknown
12:30 AM 37.4 °F 33.8 °F 30.2 °F 75% 30.06 in 6.2 mi NE 4.6 mph - N/A   Unknown
1:00 AM 36 °F - 31 °F 76% 30.08 in 25 mi NNE 6.9 mph - -   Clear
1:00 AM 35.6 °F 29.9 °F 32.0 °F 87% 30.06 in 6.2 mi NNE 6.9 mph - N/A   Unknown
1:30 AM 37.4 °F 33.8 °F 30.2 °F 75% 30.06 in 6.2 mi NNE 4.6 mph - N/A   Unknown
2:00 AM 37.4 °F 32.1 °F 32.0 °F 81% 30.06 in 6.2 mi NNE 6.9 mph - N/A   Unknown
2:30 AM 35.6 °F 32.8 °F 30.2 °F 81% 30.06 in 6.2 mi NE 3.5 mph - N/A   Unknown
3:00 AM 35.6 °F 31.7 °F 30.2 °F 81% 30.04 in 6.2 mi NNE 4.6 mph - N/A   Unknown
3:30 AM 33.8 °F 29.6 °F 30.2 °F 87% 30.04 in 6.2 mi NNE 4.6 mph - N/A   Unknown
4:00 AM 35.6 °F - 30.2 °F 81% 30.04 in 6.2 mi Variable 2.3 mph - N/A   Unknown
4:30 AM 33.8 °F 30.8 °F 28.4 °F 81% 30.04 in 6.2 mi NE 3.5 mph - N/A   Unknown
5:00 AM 32.0 °F 27.5 °F 28.4 °F 87% 30.04 in 6.2 mi NNE 4.6 mph - N/A   Unknown
5:30 AM 32.0 °F - 28.4 °F 87% 30.04 in 6.2 mi Variable 2.3 mph - N/A   Unknown
6:00 AM 32.0 °F 28.7 °F 28.4 °F 87% 30.04 in 6.2 mi NE 3.5 mph - N/A   Unknown
6:30 AM 32.0 °F - 28.4 °F 87% 30.04 in 6.2 mi Calm Calm - N/A   Unknown
7:00 AM 30 °F - 27 °F 82% 30.08 in 9 mi Calm Calm - -   Clear
7:00 AM 30.2 °F - 26.6 °F 86% 30.06 in 6.2 mi Calm Calm - N/A   Unknown
7:30 AM 30.2 °F - 26.6 °F 86% 30.06 in 6.2 mi NNE 2.3 mph - N/A   Unknown
8:00 AM 30.2 °F - 26.6 °F 86% 30.06 in 6.2 mi NNW 2.3 mph - N/A   Unknown
8:30 AM 32.0 °F - 30.2 °F 93% 30.06 in 6.2 mi Calm Calm - N/A   Unknown
9:00 AM 35.6 °F - 32.0 °F 87% 30.09 in 6.2 mi Calm Calm - N/A   Unknown
9:30 AM 39.2 °F - 32.0 °F 75% 30.09 in 6.2 mi Variable 2.3 mph - N/A   Unknown
10:00 AM 42.8 °F - 32.0 °F 66% 30.09 in 6.2 mi Variable 1.2 mph - N/A   Unknown
10:30 AM 42.8 °F - 32.0 °F 66% 30.09 in 6.2 mi Variable 2.3 mph - N/A   Unknown
11:00 AM 46.4 °F - 32.0 °F 57% 30.09 in 6.2 mi Variable 1.2 mph - N/A   Unknown
11:30 AM 50.0 °F - 32.0 °F 50% 30.09 in 6.2 mi SE 3.5 mph - N/A   Unknown
12:00 PM 51.8 °F - 30.2 °F 44% 30.09 in 6.2 mi Variable 2.3 mph - N/A   Unknown
12:30 PM 53.6 °F - 30.2 °F 41% 30.09 in 6.2 mi Variable 2.3 mph - N/A   Unknown
1:00 PM 55 °F - 29 °F 25% 30.08 in 11 mi SW 2.3 mph - -   Clear
1:00 PM 55.4 °F - 30.2 °F 38% 30.06 in 6.2 mi Variable 2.3 mph - N/A   Unknown
1:30 PM 55.4 °F - 26.6 °F 33% 30.06 in 6.2 mi North 8.1 mph - N/A   Unknown
2:00 PM 57.2 °F - 26.6 °F 31% 30.06 in 6.2 mi NE 4.6 mph - N/A   Unknown
2:30 PM 59.0 °F - 24.8 °F 27% 30.04 in 6.2 mi Variable 3.5 mph - N/A   Unknown
3:00 PM 60.8 °F - 24.8 °F 25% 30.04 in 6.2 mi East 3.5 mph - N/A   Unknown
3:30 PM 60.8 °F - 24.8 °F 25% 30.04 in 6.2 mi Variable 3.5 mph - N/A   Unknown
4:00 PM 60.8 °F - 24.8 °F 25% 30.04 in 6.2 mi Variable 4.6 mph - N/A   Unknown
4:30 PM 59.0 °F - 21.2 °F 23% 30.04 in 6.2 mi North 6.9 mph - N/A   Unknown
5:00 PM 59.0 °F - 23.0 °F 25% 30.04 in 6.2 mi North 10.4 mph - N/A   Unknown
5:30 PM 57.2 °F - 23.0 °F 27% 30.04 in 6.2 mi North 9.2 mph - N/A   Unknown
6:00 PM 55.4 °F - 24.8 °F 31% 30.04 in 6.2 mi North 9.2 mph - N/A   Unknown
6:30 PM 53.6 °F - 26.6 °F 35% 30.04 in 6.2 mi North 8.1 mph - N/A   Unknown
7:00 PM 50 °F - 28 °F 29% 30.08 in 28 mi North 8.1 mph - -   Clear
7:00 PM 50.0 °F - 28.4 °F 43% 30.06 in 6.2 mi North 8.1 mph - N/A   Unknown
7:30 PM 48.2 °F - 28.4 °F 46% 30.06 in 6.2 mi North 8.1 mph - N/A   Unknown
8:00 PM 48.2 °F - 28.4 °F 46% 30.09 in 6.2 mi North 9.2 mph - N/A   Unknown
8:30 PM 46.4 °F 42.9 °F 28.4 °F 50% 30.09 in 6.2 mi North 6.9 mph - N/A   Unknown
9:00 PM 46.4 °F 42.4 °F 26.6 °F 46% 30.09 in 6.2 mi North 8.1 mph - N/A   Unknown
9:30 PM 44.6 °F 41.4 °F 26.6 °F 49% 30.09 in 6.2 mi NNW 5.8 mph - N/A   Unknown
10:00 PM 42.8 °F 41.1 °F 28.4 °F 57% 30.12 in 6.2 mi NNW 3.5 mph - N/A   Unknown
10:30 PM 41.0 °F - 28.4 °F 61% 30.12 in 6.2 mi Variable 2.3 mph - N/A   Unknown
11:00 PM 39.2 °F 37.0 °F 30.2 °F 70% 30.12 in 5.6 mi NW 3.5 mph - N/A   Unknown
11:30 PM 37.4 °F 34.9 °F 28.4 °F 70% 30.12 in 5.0 mi Variable 3.5 mph - N/A   Unknown